EJU75QT LEZL-LSGG

Flight info

Callsign EJU75QT
Flight time 2h 6m
Altitude 34000
Route HIJ M30 PARKA N858 TLD/N0437F360 N858 SIE T430 LPA T429 TOPTU DCT TOU DCT GAI DCT MEN/N0410F300 DCT NINUN DCT LATAM DCT ETREK DCT LUXAN G53 LTP Z16 BELUS
Aircraft A320/M-SDE2E3FGHIJ1RWXYZ/LB1

Departure

Time 2026-03-27 14:52
Airport Seville Airport (LEZL)

Arrival

Time 2026-03-27 16:58
Airport Geneva International Airport (LSGG)
Time Latitude Longitude Altitude Speed Heading
2026-03-27 14:11 37.42340 -5.89790 94 ft 0 kts 315°
2026-03-27 14:42 37.42334 -5.89782 93 ft 3 kts 310°
2026-03-27 14:43 37.42322 -5.89761 93 ft 3 kts 291°
2026-03-27 14:43 37.42318 -5.89738 96 ft 3 kts 261°
2026-03-27 14:43 37.42324 -5.89715 93 ft 3 kts 234°
2026-03-27 14:43 37.42335 -5.89699 93 ft 1 kts 225°
2026-03-27 14:44 37.42337 -5.89697 93 ft 0 kts 225°
2026-03-27 14:45 37.42336 -5.89698 93 ft 1 kts 225°
2026-03-27 14:45 37.42311 -5.89726 94 ft 8 kts 217°
2026-03-27 14:46 37.42264 -5.89761 93 ft 7 kts 213°
2026-03-27 14:46 37.42231 -5.89800 94 ft 6 kts 224°
2026-03-27 14:46 37.42189 -5.89853 94 ft 10 kts 224°
2026-03-27 14:46 37.42145 -5.89907 96 ft 8 kts 224°
2026-03-27 14:47 37.42098 -5.89931 97 ft 7 kts 173°
2026-03-27 14:47 37.42050 -5.89909 96 ft 7 kts 157°
2026-03-27 14:47 37.42011 -5.89889 97 ft 6 kts 164°
2026-03-27 14:47 37.41983 -5.89917 98 ft 8 kts 252°
2026-03-27 14:48 37.41980 -5.90030 96 ft 16 kts 270°
2026-03-27 14:48 37.41980 -5.90161 95 ft 14 kts 270°
2026-03-27 14:48 37.41980 -5.90281 95 ft 13 kts 270°
2026-03-27 14:48 37.41979 -5.90392 94 ft 12 kts 269°
2026-03-27 14:49 37.41979 -5.90496 93 ft 12 kts 270°
2026-03-27 14:49 37.41978 -5.90629 93 ft 16 kts 269°
2026-03-27 14:49 37.41978 -5.90769 92 ft 16 kts 270°
2026-03-27 14:49 37.41977 -5.90901 91 ft 15 kts 270°
2026-03-27 14:50 37.41977 -5.91051 91 ft 18 kts 269°
2026-03-27 14:50 37.41976 -5.91157 89 ft 17 kts 269°
2026-03-27 14:50 37.41961 -5.91279 91 ft 13 kts 242°
2026-03-27 14:51 37.41833 -5.91226 90 ft 13 kts 120°
2026-03-27 14:51 37.41790 -5.91162 91 ft 7 kts 122°
2026-03-27 14:51 37.41788 -5.91116 90 ft 5 kts 89°
2026-03-27 14:51 37.41789 -5.90925 93 ft 53 kts 90°
2026-03-27 14:52 37.41791 -5.90181 97 ft 115 kts 90°
2026-03-27 14:52 37.41796 -5.88957 116 ft 161 kts 88°
2026-03-27 14:52 37.41791 -5.87572 742 ft 157 kts 90°
2026-03-27 14:52 37.41763 -5.86182 1312 ft 166 kts 89°
2026-03-27 14:53 37.41731 -5.84641 1644 ft 187 kts 90°
2026-03-27 14:53 37.41694 -5.82904 1959 ft 211 kts 89°
2026-03-27 14:53 37.41864 -5.80979 2368 ft 234 kts 72°
2026-03-27 14:53 37.42318 -5.78929 2971 ft 250 kts 75°
2026-03-27 14:54 37.42892 -5.76850 3826 ft 254 kts 57°
2026-03-27 14:54 37.44191 -5.75364 4724 ft 258 kts 26°
2026-03-27 14:54 37.45879 -5.74566 5636 ft 260 kts 23°
2026-03-27 14:54 37.47532 -5.73629 6536 ft 261 kts 28°
2026-03-27 14:55 37.49160 -5.72604 7408 ft 262 kts 27°
2026-03-27 14:55 37.50808 -5.71593 8259 ft 265 kts 27°
2026-03-27 14:55 37.52480 -5.70585 9094 ft 268 kts 26°
2026-03-27 14:55 37.54173 -5.69568 9907 ft 271 kts 26°
2026-03-27 14:56 37.55901 -5.68526 10470 ft 284 kts 26°
2026-03-27 14:56 37.57753 -5.67400 10735 ft 305 kts 26°
2026-03-27 14:56 37.59696 -5.66217 11305 ft 313 kts 26°
2026-03-27 14:56 37.61649 -5.65028 11997 ft 318 kts 26°
2026-03-27 14:57 37.63661 -5.63807 12694 ft 323 kts 26°
2026-03-27 14:57 37.65697 -5.62570 13404 ft 327 kts 26°
2026-03-27 14:57 37.67757 -5.61309 14088 ft 330 kts 26°
2026-03-27 14:57 37.69836 -5.60032 14719 ft 334 kts 26°
2026-03-27 14:58 37.71938 -5.58743 15330 ft 337 kts 26°
2026-03-27 14:58 37.74060 -5.57442 15943 ft 341 kts 26°
2026-03-27 14:58 37.76209 -5.56129 16570 ft 345 kts 26°
2026-03-27 14:58 37.78380 -5.54802 17168 ft 348 kts 26°
2026-03-27 14:59 37.80573 -5.53466 17772 ft 352 kts 26°
2026-03-27 14:59 37.82791 -5.52111 18349 ft 356 kts 25°
2026-03-27 14:59 37.85025 -5.50738 18867 ft 359 kts 25°
2026-03-27 14:59 37.87279 -5.49352 19407 ft 361 kts 25°
2026-03-27 15:00 37.89545 -5.47962 19955 ft 364 kts 25°
2026-03-27 15:00 37.91830 -5.46560 20525 ft 365 kts 25°
2026-03-27 15:00 37.94121 -5.45153 21095 ft 367 kts 25°
2026-03-27 15:00 37.96426 -5.43733 21644 ft 369 kts 25°
2026-03-27 15:01 37.98744 -5.42306 22168 ft 372 kts 25°
2026-03-27 15:01 38.01083 -5.40869 22706 ft 375 kts 25°
2026-03-27 15:01 38.03434 -5.39419 23249 ft 377 kts 25°
2026-03-27 15:01 38.05796 -5.37956 23748 ft 379 kts 25°
2026-03-27 15:02 38.08174 -5.36485 24171 ft 381 kts 25°
2026-03-27 15:02 38.10567 -5.35007 24566 ft 384 kts 25°
2026-03-27 15:02 38.12980 -5.33517 24970 ft 387 kts 25°
2026-03-27 15:02 38.15408 -5.32019 25382 ft 389 kts 26°
2026-03-27 15:03 38.17854 -5.30509 25763 ft 392 kts 26°
2026-03-27 15:03 38.20313 -5.28985 26145 ft 394 kts 26°
2026-03-27 15:03 38.22785 -5.27448 26536 ft 396 kts 26°
2026-03-27 15:03 38.25266 -5.25903 26910 ft 398 kts 26°
2026-03-27 15:04 38.27726 -5.24369 27275 ft 400 kts 26°
2026-03-27 15:04 38.30235 -5.22805 27649 ft 402 kts 26°
2026-03-27 15:04 38.32756 -5.21236 28008 ft 404 kts 26°
2026-03-27 15:04 38.35289 -5.19663 28364 ft 406 kts 26°
2026-03-27 15:05 38.37837 -5.18082 28697 ft 408 kts 26°
2026-03-27 15:05 38.40395 -5.16491 29043 ft 410 kts 26°
2026-03-27 15:05 38.42967 -5.14886 29371 ft 412 kts 26°
2026-03-27 15:05 38.45547 -5.13274 29686 ft 414 kts 26°
2026-03-27 15:06 38.48161 -5.11710 30002 ft 416 kts 21°
2026-03-27 15:06 38.50946 -5.10675 30271 ft 419 kts 11°
2026-03-27 15:06 38.53852 -5.10321 30524 ft 422 kts
2026-03-27 15:06 38.56790 -5.10556 30743 ft 425 kts 356°
2026-03-27 15:07 38.59746 -5.10864 30967 ft 427 kts 356°
2026-03-27 15:07 38.62717 -5.11170 31213 ft 428 kts 356°
2026-03-27 15:07 38.65685 -5.11475 31567 ft 427 kts 356°
2026-03-27 15:07 38.68642 -5.11778 31918 ft 426 kts 356°
2026-03-27 15:08 38.71592 -5.12080 32278 ft 425 kts 357°
2026-03-27 15:08 38.74535 -5.12379 32630 ft 424 kts 357°
2026-03-27 15:08 38.77469 -5.12675 32981 ft 423 kts 357°
2026-03-27 15:08 38.80401 -5.12973 33302 ft 422 kts 357°
2026-03-27 15:09 38.83327 -5.13271 33623 ft 422 kts 357°
2026-03-27 15:09 38.86249 -5.13571 33961 ft 421 kts 357°
2026-03-27 15:09 38.89170 -5.13871 34253 ft 420 kts 357°
2026-03-27 15:09 38.92081 -5.14172 34521 ft 420 kts 357°
2026-03-27 15:10 38.94988 -5.14460 34783 ft 419 kts 359°
2026-03-27 15:10 38.97887 -5.14320 35035 ft 416 kts
2026-03-27 15:10 39.00707 -5.13533 35263 ft 415 kts 18°
2026-03-27 15:10 39.03370 -5.12122 35491 ft 415 kts 28°
2026-03-27 15:11 39.05825 -5.10177 35721 ft 415 kts 32°
2026-03-27 15:11 39.08245 -5.08157 35936 ft 415 kts 32°
2026-03-27 15:11 39.10644 -5.06174 36027 ft 415 kts 32°
2026-03-27 15:12 39.15495 -5.02175 36040 ft 413 kts 32°
2026-03-27 15:12 39.20330 -4.98177 36040 ft 413 kts 32°
2026-03-27 15:13 39.25162 -4.94164 36044 ft 413 kts 32°
2026-03-27 15:13 39.29997 -4.90142 36049 ft 413 kts 32°
2026-03-27 15:14 39.34833 -4.86118 36048 ft 414 kts 32°
2026-03-27 15:14 39.39661 -4.82082 36050 ft 413 kts 32°
2026-03-27 15:15 39.44483 -4.78050 36049 ft 413 kts 32°
2026-03-27 15:15 39.49311 -4.74006 36048 ft 413 kts 31°
2026-03-27 15:16 39.54136 -4.69963 36050 ft 413 kts 31°
2026-03-27 15:16 39.58960 -4.65915 36056 ft 413 kts 32°
2026-03-27 15:17 39.63780 -4.61853 36057 ft 413 kts 32°
2026-03-27 15:17 39.68601 -4.57788 36058 ft 413 kts 32°
2026-03-27 15:18 39.73424 -4.53712 36065 ft 414 kts 31°
2026-03-27 15:18 39.78250 -4.49632 36063 ft 414 kts 31°
2026-03-27 15:19 39.83084 -4.45534 36063 ft 414 kts 31°
2026-03-27 15:19 39.87909 -4.41431 36062 ft 415 kts 31°
2026-03-27 15:20 39.92737 -4.37318 36062 ft 415 kts 31°
2026-03-27 15:20 39.97620 -4.33328 36065 ft 413 kts 24°
2026-03-27 15:21 40.02821 -4.30169 36070 ft 412 kts 23°
2026-03-27 15:21 40.08010 -4.27012 36066 ft 411 kts 23°
2026-03-27 15:22 40.13195 -4.23841 36066 ft 411 kts 23°
2026-03-27 15:22 40.18379 -4.20666 36069 ft 411 kts 23°
2026-03-27 15:23 40.23527 -4.17513 36077 ft 411 kts 23°
2026-03-27 15:23 40.28694 -4.14342 36076 ft 410 kts 23°
2026-03-27 15:24 40.33860 -4.11164 36071 ft 410 kts 23°
2026-03-27 15:24 40.39027 -4.07986 36066 ft 410 kts 23°
2026-03-27 15:25 40.44199 -4.04803 36070 ft 411 kts 23°
2026-03-27 15:25 40.49367 -4.01612 36074 ft 411 kts 23°
2026-03-27 15:26 40.54537 -3.98409 36083 ft 411 kts 23°
2026-03-27 15:26 40.59709 -3.95198 36090 ft 411 kts 23°
2026-03-27 15:27 40.64879 -3.91987 36089 ft 411 kts 23°
2026-03-27 15:27 40.70051 -3.88769 36091 ft 411 kts 23°
2026-03-27 15:28 40.75218 -3.85557 36088 ft 410 kts 23°
2026-03-27 15:28 40.80345 -3.82351 36120 ft 410 kts 23°
2026-03-27 15:29 40.85504 -3.79116 36127 ft 411 kts 23°
2026-03-27 15:29 40.90664 -3.75883 36127 ft 410 kts 22°
2026-03-27 15:30 40.95815 -3.72658 36127 ft 409 kts 23°
2026-03-27 15:30 41.00963 -3.69428 36127 ft 409 kts 23°
2026-03-27 15:31 41.06101 -3.66192 36126 ft 409 kts 23°
2026-03-27 15:31 41.11232 -3.62947 36118 ft 409 kts 22°
2026-03-27 15:32 41.16268 -3.59420 36121 ft 412 kts 32°
2026-03-27 15:32 41.20933 -3.54979 36131 ft 412 kts 32°
2026-03-27 15:33 41.25592 -3.50532 36121 ft 413 kts 32°
2026-03-27 15:33 41.30251 -3.46075 36133 ft 412 kts 32°
2026-03-27 15:34 41.34910 -3.41618 36140 ft 413 kts 32°
2026-03-27 15:34 41.39571 -3.37144 36138 ft 413 kts 32°
2026-03-27 15:35 41.44226 -3.32667 36128 ft 413 kts 32°
2026-03-27 15:35 41.48887 -3.28176 36131 ft 414 kts 32°
2026-03-27 15:36 41.53553 -3.23666 36132 ft 414 kts 32°
2026-03-27 15:36 41.58219 -3.19162 36136 ft 414 kts 32°
2026-03-27 15:37 41.62885 -3.14645 36140 ft 414 kts 32°
2026-03-27 15:37 41.67524 -3.10159 36150 ft 414 kts 32°
2026-03-27 15:38 41.72195 -3.05627 36150 ft 415 kts 32°
2026-03-27 15:38 41.76862 -3.01085 36148 ft 415 kts 32°
2026-03-27 15:39 41.81536 -2.96519 36152 ft 416 kts 32°
2026-03-27 15:39 41.86216 -2.91934 36170 ft 417 kts 32°
2026-03-27 15:40 41.90905 -2.87344 36178 ft 417 kts 32°
2026-03-27 15:40 41.94832 -2.83495 36189 ft 417 kts 32°
2026-03-27 15:41 41.99484 -2.78928 36212 ft 417 kts 32°
2026-03-27 15:41 42.04163 -2.74329 36235 ft 416 kts 32°
2026-03-27 15:42 42.08830 -2.69727 36249 ft 416 kts 32°
2026-03-27 15:42 42.13494 -2.65108 36253 ft 416 kts 32°
2026-03-27 15:43 42.20485 -2.58180 36260 ft 416 kts 32°
2026-03-27 15:43 42.25138 -2.53567 36258 ft 415 kts 32°
2026-03-27 15:44 42.29787 -2.48948 36265 ft 415 kts 32°
2026-03-27 15:44 42.34429 -2.44327 36266 ft 414 kts 32°
2026-03-27 15:45 42.39068 -2.39691 36244 ft 415 kts 33°
2026-03-27 15:45 42.43544 -2.34742 36243 ft 420 kts 44°
2026-03-27 15:46 42.46661 -2.27969 36253 ft 432 kts 65°
2026-03-27 15:46 42.48179 -2.20017 36241 ft 438 kts 73°
2026-03-27 15:47 42.49519 -2.11951 36238 ft 439 kts 73°
2026-03-27 15:47 42.50853 -2.03870 36238 ft 440 kts 73°
2026-03-27 15:48 42.52187 -1.95776 36235 ft 440 kts 73°
2026-03-27 15:48 42.53517 -1.87668 36255 ft 441 kts 73°
2026-03-27 15:49 42.54843 -1.79561 36239 ft 441 kts 73°
2026-03-27 15:49 42.56149 -1.71504 36235 ft 440 kts 73°
2026-03-27 15:50 42.57450 -1.63385 36229 ft 440 kts 73°
2026-03-27 15:50 42.58755 -1.55268 36222 ft 440 kts 73°
2026-03-27 15:51 42.60057 -1.47151 36231 ft 440 kts 73°
2026-03-27 15:51 42.61347 -1.39034 36236 ft 439 kts 73°
2026-03-27 15:52 42.62627 -1.30930 36216 ft 439 kts 73°
2026-03-27 15:52 42.63896 -1.22824 36199 ft 439 kts 73°
2026-03-27 15:53 42.65175 -1.14728 36171 ft 438 kts 73°
2026-03-27 15:53 42.66443 -1.06628 36152 ft 439 kts 73°
2026-03-27 15:54 42.67705 -0.98516 36146 ft 437 kts 73°
2026-03-27 15:54 42.68968 -0.90424 36120 ft 439 kts 74°
2026-03-27 15:55 42.70207 -0.82313 36127 ft 438 kts 73°
2026-03-27 15:55 42.71438 -0.74206 36135 ft 438 kts 73°
2026-03-27 15:56 42.72685 -0.66063 36168 ft 441 kts 73°
2026-03-27 15:56 42.73917 -0.57899 36152 ft 441 kts 73°
2026-03-27 15:57 42.75125 -0.49794 36146 ft 434 kts 73°
2026-03-27 15:57 42.76341 -0.41739 36124 ft 434 kts 73°
2026-03-27 15:58 42.77555 -0.33667 36120 ft 436 kts 73°
2026-03-27 15:58 42.78758 -0.25580 36157 ft 435 kts 72°
2026-03-27 15:59 42.80833 -0.17999 36152 ft 423 kts 54°
2026-03-27 15:59 42.84319 -0.11659 36155 ft 417 kts 45°
2026-03-27 16:00 42.88007 -0.05540 36184 ft 418 kts 46°
2026-03-27 16:00 42.91653 0.00562 36203 ft 418 kts 45°
2026-03-27 16:01 42.95326 0.06707 36200 ft 418 kts 45°
2026-03-27 16:01 42.99003 0.12848 36198 ft 418 kts 45°
2026-03-27 16:02 43.02674 0.19002 36217 ft 418 kts 46°
2026-03-27 16:02 43.06354 0.25183 36198 ft 420 kts 47°
2026-03-27 16:03 43.10046 0.31409 36206 ft 422 kts 47°
2026-03-27 16:03 43.13746 0.37665 36215 ft 424 kts 47°
2026-03-27 16:04 43.17453 0.43947 36229 ft 424 kts 46°
2026-03-27 16:04 43.21162 0.50240 36235 ft 425 kts 47°
2026-03-27 16:05 43.24870 0.56554 36244 ft 425 kts 46°
2026-03-27 16:05 43.28576 0.62859 36248 ft 424 kts 46°
2026-03-27 16:06 43.32281 0.69171 36242 ft 424 kts 47°
2026-03-27 16:06 43.35973 0.75486 36240 ft 424 kts 46°
2026-03-27 16:07 43.39665 0.81805 36273 ft 423 kts 46°
2026-03-27 16:07 43.43338 0.88114 36277 ft 422 kts 46°
2026-03-27 16:08 43.46998 0.94409 36265 ft 421 kts 46°
2026-03-27 16:08 43.50648 1.00699 36255 ft 420 kts 46°
2026-03-27 16:09 43.54288 1.06994 36244 ft 420 kts 46°
2026-03-27 16:09 43.57925 1.13288 36237 ft 419 kts 46°
2026-03-27 16:10 43.61553 1.19571 36252 ft 418 kts 46°
2026-03-27 16:10 43.65158 1.25865 36246 ft 418 kts 46°
2026-03-27 16:11 43.68750 1.32172 36239 ft 418 kts 47°
2026-03-27 16:11 43.72233 1.38603 36238 ft 418 kts 49°
2026-03-27 16:12 43.75651 1.45111 36236 ft 418 kts 49°
2026-03-27 16:12 43.79084 1.51607 36235 ft 418 kts 48°
2026-03-27 16:13 43.82530 1.58089 36257 ft 417 kts 48°
2026-03-27 16:13 43.85967 1.64551 36252 ft 416 kts 48°
2026-03-27 16:14 43.89392 1.71013 36240 ft 415 kts 48°
2026-03-27 16:14 43.92803 1.77475 36231 ft 415 kts 48°
2026-03-27 16:15 43.96172 1.83903 36222 ft 415 kts 49°
2026-03-27 16:15 43.99484 1.90472 36222 ft 415 kts 50°
2026-03-27 16:16 44.02743 1.97090 36239 ft 414 kts 50°
2026-03-27 16:16 44.05996 2.03693 36222 ft 414 kts 49°
2026-03-27 16:17 44.09261 2.10275 36211 ft 413 kts 49°
2026-03-27 16:17 44.12520 2.16850 36197 ft 413 kts 49°
2026-03-27 16:18 44.15773 2.23425 36196 ft 412 kts 50°
2026-03-27 16:18 44.19016 2.30010 36223 ft 412 kts 49°
2026-03-27 16:19 44.22246 2.36595 36207 ft 411 kts 49°
2026-03-27 16:19 44.25473 2.43155 36200 ft 409 kts 49°
2026-03-27 16:20 44.28692 2.49705 36188 ft 409 kts 49°
2026-03-27 16:20 44.31897 2.56278 36186 ft 409 kts 50°
2026-03-27 16:21 44.35085 2.62858 36182 ft 409 kts 50°
2026-03-27 16:21 44.38276 2.69424 36191 ft 408 kts 49°
2026-03-27 16:22 44.41452 2.75955 36180 ft 405 kts 49°
2026-03-27 16:22 44.44614 2.82475 36184 ft 405 kts 49°
2026-03-27 16:23 44.47763 2.88996 36180 ft 404 kts 49°
2026-03-27 16:23 44.50909 2.95529 36185 ft 404 kts 49°
2026-03-27 16:24 44.54048 3.02070 36182 ft 405 kts 50°
2026-03-27 16:24 44.56652 3.07512 36195 ft 403 kts 49°
2026-03-27 16:25 44.59758 3.14025 36172 ft 401 kts 49°
2026-03-27 16:26 44.64141 3.24078 36178 ft 404 kts 54°
2026-03-27 16:26 44.66826 3.31024 36183 ft 405 kts 54°
2026-03-27 16:27 44.69527 3.37954 36177 ft 404 kts 54°
2026-03-27 16:27 44.72276 3.44845 36182 ft 404 kts 53°
2026-03-27 16:28 44.75035 3.51730 36169 ft 404 kts 53°
2026-03-27 16:28 44.77782 3.58630 36172 ft 404 kts 54°
2026-03-27 16:29 44.80524 3.65541 36174 ft 404 kts 54°
2026-03-27 16:29 44.83268 3.72448 36172 ft 404 kts 54°
2026-03-27 16:30 44.86004 3.79369 36163 ft 404 kts 54°
2026-03-27 16:30 44.88725 3.86298 36200 ft 404 kts 53°
2026-03-27 16:31 44.91432 3.93214 36196 ft 402 kts 53°
2026-03-27 16:31 44.94136 4.00119 36193 ft 402 kts 53°
2026-03-27 16:32 44.96834 4.07027 36187 ft 402 kts 53°
2026-03-27 16:32 44.99531 4.13943 36180 ft 402 kts 54°
2026-03-27 16:33 45.02218 4.20873 36187 ft 402 kts 54°
2026-03-27 16:33 45.04902 4.27804 36181 ft 402 kts 54°
2026-03-27 16:33 45.06238 4.31263 35913 ft 400 kts 54°
2026-03-27 16:34 45.07567 4.34710 35672 ft 398 kts 53°
2026-03-27 16:34 45.08887 4.38130 35424 ft 395 kts 53°
2026-03-27 16:34 45.10194 4.41523 35157 ft 390 kts 53°
2026-03-27 16:34 45.11478 4.44873 34709 ft 385 kts 53°
2026-03-27 16:35 45.12749 4.48194 34237 ft 382 kts 53°
2026-03-27 16:35 45.14011 4.51489 33727 ft 379 kts 53°
2026-03-27 16:35 45.15260 4.54744 33287 ft 374 kts 53°
2026-03-27 16:35 45.16495 4.57968 32843 ft 370 kts 53°
2026-03-27 16:36 45.17714 4.61150 32397 ft 366 kts 53°
2026-03-27 16:36 45.18920 4.64302 31945 ft 363 kts 53°
2026-03-27 16:36 45.20120 4.67437 31436 ft 361 kts 53°
2026-03-27 16:36 45.21313 4.70553 30964 ft 358 kts 53°
2026-03-27 16:37 45.22496 4.73651 30499 ft 356 kts 53°
2026-03-27 16:37 45.23669 4.76725 29997 ft 354 kts 53°
2026-03-27 16:37 45.24831 4.79787 29527 ft 350 kts 53°
2026-03-27 16:37 45.25962 4.82777 29088 ft 346 kts 53°
2026-03-27 16:38 45.27096 4.85771 28658 ft 342 kts 53°
2026-03-27 16:38 45.28216 4.88728 28233 ft 338 kts 53°
2026-03-27 16:38 45.29338 4.91695 27798 ft 335 kts 53°
2026-03-27 16:38 45.30434 4.94596 27380 ft 332 kts 53°
2026-03-27 16:39 45.31518 4.97472 26926 ft 329 kts 53°
2026-03-27 16:39 45.32579 5.00284 26492 ft 326 kts 53°
2026-03-27 16:39 45.33646 5.03107 26092 ft 323 kts 53°
2026-03-27 16:39 45.34706 5.05913 25608 ft 322 kts 53°
2026-03-27 16:40 45.35760 5.08711 25151 ft 320 kts 53°
2026-03-27 16:40 45.36808 5.11494 24683 ft 318 kts 53°
2026-03-27 16:40 45.37848 5.14261 24224 ft 317 kts 53°
2026-03-27 16:40 45.38886 5.17021 23754 ft 316 kts 54°
2026-03-27 16:41 45.39918 5.19775 23230 ft 314 kts 54°
2026-03-27 16:41 45.40942 5.22508 22745 ft 312 kts 54°
2026-03-27 16:41 45.41957 5.25226 22310 ft 309 kts 54°
2026-03-27 16:41 45.42960 5.27918 21860 ft 307 kts 54°
2026-03-27 16:42 45.43957 5.30592 21424 ft 304 kts 54°
2026-03-27 16:42 45.44945 5.33247 20986 ft 303 kts 54°
2026-03-27 16:42 45.45926 5.35886 20559 ft 301 kts 54°
2026-03-27 16:43 45.47881 5.41135 19708 ft 299 kts 53°
2026-03-27 16:43 45.49065 5.43496 19289 ft 289 kts 41°
2026-03-27 16:43 45.50591 5.45301 18927 ft 283 kts 29°
2026-03-27 16:43 45.52286 5.46709 18497 ft 282 kts 28°
2026-03-27 16:44 45.53980 5.48110 18048 ft 281 kts 28°
2026-03-27 16:44 45.55662 5.49506 17655 ft 279 kts 28°
2026-03-27 16:44 45.57330 5.50895 17271 ft 276 kts 28°
2026-03-27 16:44 45.58983 5.52271 16887 ft 274 kts 28°
2026-03-27 16:45 45.60624 5.53637 16498 ft 273 kts 28°
2026-03-27 16:45 45.62260 5.54999 16120 ft 271 kts 28°
2026-03-27 16:45 45.63883 5.56355 15741 ft 270 kts 28°
2026-03-27 16:45 45.65501 5.57705 15374 ft 269 kts 29°
2026-03-27 16:46 45.67114 5.59049 15012 ft 268 kts 29°
2026-03-27 16:46 45.68726 5.60373 14640 ft 267 kts 28°
2026-03-27 16:46 45.70350 5.61662 14288 ft 267 kts 28°
2026-03-27 16:46 45.71975 5.62935 13932 ft 266 kts 28°
2026-03-27 16:47 45.73594 5.64197 13528 ft 264 kts 28°
2026-03-27 16:47 45.75204 5.65456 13124 ft 264 kts 28°
2026-03-27 16:47 45.76809 5.66716 12720 ft 262 kts 28°
2026-03-27 16:47 45.78403 5.67972 12331 ft 261 kts 28°
2026-03-27 16:48 45.79985 5.69222 11993 ft 258 kts 28°
2026-03-27 16:48 45.81551 5.70460 11665 ft 256 kts 28°
2026-03-27 16:48 45.83108 5.71691 11387 ft 256 kts 28°
2026-03-27 16:48 45.84664 5.72923 11110 ft 254 kts 28°
2026-03-27 16:49 45.86197 5.74140 10840 ft 250 kts 29°
2026-03-27 16:49 45.87717 5.75318 10565 ft 247 kts 24°
2026-03-27 16:49 45.89359 5.76071 10188 ft 249 kts 12°
2026-03-27 16:49 45.91068 5.76535 9761 ft 250 kts 12°
2026-03-27 16:50 45.92755 5.77002 9317 ft 242 kts 12°
2026-03-27 16:50 45.94398 5.77461 8883 ft 239 kts 13°
2026-03-27 16:50 45.96016 5.77913 8463 ft 235 kts 13°
2026-03-27 16:50 45.97616 5.78357 8060 ft 234 kts 12°
2026-03-27 16:51 45.99212 5.78799 7740 ft 233 kts 12°
2026-03-27 16:51 46.00791 5.79238 7487 ft 228 kts 13°
2026-03-27 16:51 46.02278 5.79863 7281 ft 219 kts 28°
2026-03-27 16:51 46.03448 5.81200 7027 ft 213 kts 44°
2026-03-27 16:52 46.04476 5.82697 6755 ft 208 kts 44°
2026-03-27 16:52 46.05481 5.84160 6483 ft 204 kts 44°
2026-03-27 16:52 46.06470 5.85596 6198 ft 200 kts 44°
2026-03-27 16:52 46.07448 5.87016 5913 ft 200 kts 44°
2026-03-27 16:53 46.08422 5.88432 5627 ft 197 kts 43°
2026-03-27 16:53 46.09364 5.89802 5368 ft 187 kts 43°
2026-03-27 16:53 46.10261 5.91108 5126 ft 181 kts 43°
2026-03-27 16:53 46.11155 5.92410 4864 ft 183 kts 43°
2026-03-27 16:54 46.12027 5.93679 4635 ft 175 kts 43°
2026-03-27 16:54 46.12872 5.94910 4362 ft 170 kts 43°
2026-03-27 16:54 46.13692 5.96105 4122 ft 166 kts 43°
2026-03-27 16:54 46.14508 5.97296 3897 ft 166 kts 42°
2026-03-27 16:55 46.15304 5.98458 3685 ft 157 kts 44°
2026-03-27 16:55 46.16030 5.99519 3468 ft 142 kts 43°
2026-03-27 16:55 46.16693 6.00486 3292 ft 132 kts 43°
2026-03-27 16:55 46.17330 6.01415 3100 ft 128 kts 44°
2026-03-27 16:56 46.17955 6.02329 2923 ft 128 kts 43°
2026-03-27 16:56 46.18577 6.03238 2717 ft 126 kts 42°
2026-03-27 16:56 46.19193 6.04138 2517 ft 128 kts 43°
2026-03-27 16:56 46.19812 6.05043 2303 ft 127 kts 43°
2026-03-27 16:57 46.20442 6.05963 2088 ft 128 kts 44°
2026-03-27 16:57 46.21056 6.06862 1936 ft 127 kts 43°
2026-03-27 16:57 46.21670 6.07761 1783 ft 125 kts 43°
2026-03-27 16:57 46.22291 6.08673 1603 ft 128 kts 44°
2026-03-27 16:58 46.22902 6.09570 1428 ft 124 kts 44°
2026-03-27 16:58 46.23422 6.10331 1399 ft 84 kts 46°
2026-03-27 16:58 46.23715 6.10762 1383 ft 44 kts 45°
2026-03-27 16:58 46.23857 6.10973 1379 ft 16 kts 50°
2026-03-27 16:59 46.23809 6.11076 1380 ft 15 kts 169°
2026-03-27 16:59 46.23725 6.11088 1383 ft 9 kts 192°
2026-03-27 16:59 46.23676 6.11038 1388 ft 8 kts 224°
2026-03-27 16:59 46.23633 6.10974 1385 ft 10 kts 225°
2026-03-27 17:00 46.23587 6.10907 1388 ft 9 kts 225°
2026-03-27 17:00 46.23547 6.10863 1398 ft 6 kts 184°
2026-03-27 17:00 46.23512 6.10903 1392 ft 5 kts 136°
2026-03-27 17:00 46.23503 6.10915 1393 ft 0 kts 136°